• In Belarus
  • List of Countries
  • For 7 days
  • Water Temperature
  • Satellite Maps
  • Weather Map
  • Weather Widgets
  • user-avatar
    Login

    Hourly Weather Solden

    Today, 22 February, Friday

    Time Temperature Precipitation Wind Pressure Humidity
    00:00 -8°C° 0 mm 3 mps 585 mmHg 81%
    01:00 -6°C° 0 mm 3 mps 586 mmHg 81%
    02:00 -7°C° 0 mm 3 mps 585 mmHg 82%
    03:00 -7°C° 0 mm 3 mps 585 mmHg 82%
    04:00 -8°C° 0 mm 3 mps 584 mmHg 83%
    05:00 -8°C° 0 mm 3 mps 584 mmHg 83%
    06:00 -7°C° 0 mm 3 mps 585 mmHg 83%
    07:00 -7°C° 0 mm 3 mps 585 mmHg 83%
    08:00 -6°C° 0 mm 3 mps 585 mmHg 81%
    09:00 -4°C° 0 mm 3 mps 586 mmHg 79%
    10:00 -1°C° 0 mm 3 mps 587 mmHg 77%
    11:00 -1°C° 0 mm 3 mps 588 mmHg 77%
    12:00 0°C° 0 mm 3 mps 588 mmHg 76%
    13:00 +1°C° 0 mm 3 mps 588 mmHg 75%
    14:00 0°C° 0 mm 3 mps 588 mmHg 75%
    15:00 0°C° 0 mm 3 mps 588 mmHg 74%
    16:00 -1°C° 0 mm 3 mps 588 mmHg 74%
    17:00 -2°C° 0 mm 3 mps 587 mmHg 77%
    18:00 -5°C° 0 mm 3 mps 587 mmHg 80%
    19:00 -7°C° 0 mm 3 mps 586 mmHg 83%
    20:00 -8°C° 0 mm 3 mps 586 mmHg 83%
    21:00 -8°C° 0 mm 3 mps 586 mmHg 82%
    22:00 -9°C° 0 mm 3 mps 586 mmHg 82%
    23:00 -9°C° 0 mm 3 mps 586 mmHg 81%

    Tomorrow, 23 February, Saturday

    Time Temperature Precipitation Wind Pressure Humidity
    00:00 -10°C° 0 mm 3 mps 586 mmHg 79%
    01:00 -10°C° 0 mm 3 mps 586 mmHg 77%
    02:00 -10°C° 0 mm 3 mps 586 mmHg 72%
    03:00 -10°C° 0 mm 3 mps 586 mmHg 67%
    04:00 -10°C° 0 mm 3 mps 586 mmHg 62%
    05:00 -10°C° 0 mm 3 mps 586 mmHg 57%
    06:00 -10°C° 0 mm 3 mps 586 mmHg 52%
    07:00 -12°C° 0 mm 3 mps 586 mmHg 47%
    08:00 -8°C° 0 mm 3 mps 587 mmHg 47%
    09:00 -5°C° 0 mm 2 mps 588 mmHg 47%
    10:00 -3°C° 0 mm 2 mps 589 mmHg 47%
    11:00 -2°C° 0 mm 2 mps 590 mmHg 48%
    12:00 -1°C° 0 mm 2 mps 590 mmHg 48%
    13:00 +1°C° 0 mm 2 mps 591 mmHg 49%
    14:00 +1°C° 0 mm 2 mps 591 mmHg 51%
    15:00 +1°C° 0 mm 2 mps 590 mmHg 53%
    16:00 +1°C° 0 mm 2 mps 590 mmHg 56%
    17:00 -3°C° 0 mm 2 mps 589 mmHg 57%
    18:00 -5°C° 0 mm 2 mps 589 mmHg 59%
    19:00 -7°C° 0 mm 2 mps 588 mmHg 61%
    20:00 -7°C° 0 mm 2 mps 588 mmHg 59%
    21:00 -7°C° 0 mm 2 mps 588 mmHg 57%
    22:00 -6°C° 0 mm 1 mps 588 mmHg 55%
    23:00 -6°C° 0 mm 1 mps 588 mmHg 56%

    Day after tomorrow, 24 February, Sunday

    Time Temperature Precipitation Wind Pressure Humidity
    00:00 -7°C° 0 mm 1 mps 588 mmHg 56%
    01:00 -7°C° 0 mm 1 mps 588 mmHg 56%
    02:00 -7°C° 0 mm 1 mps 588 mmHg 56%
    03:00 -7°C° 0 mm 1 mps 588 mmHg 57%
    04:00 -7°C° 0 mm 1 mps 588 mmHg 57%
    05:00 -7°C° 0 mm 2 mps 588 mmHg 56%
    06:00 -7°C° 0 mm 2 mps 588 mmHg 56%
    07:00 -7°C° 0 mm 2 mps 588 mmHg 55%
    08:00 -3°C° 0 mm 1 mps 589 mmHg 56%
    09:00 -1°C° 0 mm 1 mps 590 mmHg 57%
    10:00 +1°C° 0 mm 1 mps 591 mmHg 57%
    11:00 +2°C° 0 mm 1 mps 592 mmHg 58%
    12:00 +3°C° 0 mm 1 mps 592 mmHg 60%
    13:00 +4°C° 0 mm 1 mps 593 mmHg 61%
    14:00 +4°C° 0 mm 1 mps 592 mmHg 62%
    15:00 +4°C° 0 mm 1 mps 592 mmHg 63%
    16:00 +3°C° 0 mm 1 mps 592 mmHg 64%
    17:00 +1°C° 0 mm 1 mps 591 mmHg 66%
    18:00 0°C° 0 mm 1 mps 591 mmHg 68%
    19:00 -2°C° 0 mm 1 mps 590 mmHg 70%
    20:00 -2°C° 0 mm 1 mps 590 mmHg 68%
    21:00 -3°C° 0 mm 1 mps 590 mmHg 67%
    22:00 -3°C° 0 mm 1 mps 590 mmHg 66%
    23:00 -3°C° 0 mm 1 mps 590 mmHg 65%

    25 February, Monday

    Time Temperature Precipitation Wind Pressure Humidity
    00:00 -3°C° 0 mm 1 mps 590 mmHg 64%
    01:00 -3°C° 0 mm 1 mps 590 mmHg 63%
    02:00 -3°C° 0 mm 1 mps 590 mmHg 61%
    03:00 -4°C° 0 mm 1 mps 590 mmHg 60%
    04:00 -4°C° 0 mm 1 mps 590 mmHg 58%
    05:00 -6°C° 0 mm 2 mps 590 mmHg 56%
    06:00 -6°C° 0 mm 2 mps 590 mmHg 55%
    07:00 -6°C° 0 mm 2 mps 590 mmHg 53%
    08:00 -4°C° 0 mm 2 mps 591 mmHg 54%
    09:00 0°C° 0 mm 1 mps 592 mmHg 54%
    10:00 +2°C° 0 mm 1 mps 592 mmHg 55%
    11:00 +3°C° 0 mm 1 mps 593 mmHg 55%
    12:00 +4°C° 0 mm 1 mps 593 mmHg 55%
    13:00 +5°C° 0 mm 1 mps 593 mmHg 55%
    14:00 +5°C° 0 mm 1 mps 593 mmHg 55%
    15:00 +5°C° 0 mm 1 mps 593 mmHg 56%
    16:00 +4°C° 0 mm 1 mps 592 mmHg 57%
    17:00 +2°C° 0 mm 1 mps 591 mmHg 61%
    18:00 -1°C° 0 mm 2 mps 591 mmHg 64%
    19:00 -3°C° 0 mm 2 mps 590 mmHg 68%
    20:00 -4°C° 0 mm 2 mps 590 mmHg 66%
    21:00 -4°C° 0 mm 2 mps 590 mmHg 64%
    22:00 -4°C° 0 mm 2 mps 590 mmHg 62%
    23:00 -4°C° 0 mm 2 mps 590 mmHg 60%

    26 February, Tuesday

    Time Temperature Precipitation Wind Pressure Humidity
    00:00 -5°C° 0 mm 2 mps 589 mmHg 59%
    01:00 -5°C° 0 mm 2 mps 589 mmHg 57%
    02:00 -5°C° 0 mm 2 mps 589 mmHg 56%
    03:00 -5°C° 0 mm 2 mps 589 mmHg 54%
    04:00 -5°C° 0 mm 2 mps 588 mmHg 53%
    05:00 -5°C° 0 mm 2 mps 588 mmHg 51%
    06:00 -5°C° 0 mm 2 mps 588 mmHg 49%
    07:00 -5°C° 0 mm 2 mps 588 mmHg 47%
    08:00 -3°C° 0 mm 2 mps 589 mmHg 48%
    09:00 -1°C° 0 mm 2 mps 590 mmHg 48%
    10:00 +2°C° 0 mm 2 mps 591 mmHg 48%
    11:00 +3°C° 0 mm 2 mps 591 mmHg 49%
    12:00 +4°C° 0 mm 2 mps 591 mmHg 49%
    13:00 +5°C° 0 mm 2 mps 592 mmHg 49%
    14:00 +5°C° 0 mm 2 mps 591 mmHg 51%
    15:00 +5°C° 0 mm 2 mps 591 mmHg 52%
    16:00 +4°C° 0 mm 2 mps 591 mmHg 54%
    17:00 +2°C° 0 mm 2 mps 590 mmHg 56%
    18:00 -1°C° 0 mm 2 mps 589 mmHg 58%
    19:00 -4°C° 0 mm 3 mps 588 mmHg 59%
    20:00 -4°C° 0 mm 3 mps 588 mmHg 57%
    21:00 -4°C° 0 mm 3 mps 588 mmHg 54%
    22:00 -4°C° 0 mm 3 mps 588 mmHg 52%
    23:00 -4°C° 0 mm 3 mps 588 mmHg 52%

    27 February, Wednesday

    Time Temperature Precipitation Wind Pressure Humidity
    00:00 -3°C° 0 mm 2 mps 588 mmHg 52%
    01:00 -3°C° 0 mm 2 mps 588 mmHg 51%
    02:00 -3°C° 0 mm 2 mps 587 mmHg 54%
    03:00 -3°C° 0 mm 2 mps 587 mmHg 57%
    04:00 -3°C° 0 mm 2 mps 587 mmHg 60%
    05:00 -4°C° 0 mm 2 mps 587 mmHg 64%
    06:00 -4°C° 0 mm 2 mps 587 mmHg 68%
    07:00 -4°C° 0 mm 2 mps 587 mmHg 71%
    08:00 -2°C° 0 mm 2 mps 588 mmHg 70%
    09:00 +1°C° 0 mm 2 mps 588 mmHg 68%
    10:00 +4°C° 0 mm 1 mps 589 mmHg 67%
    11:00 +5°C° 0 mm 1 mps 589 mmHg 65%
    12:00 +6°C° 0 mm 1 mps 590 mmHg 63%
    13:00 +7°C° 0 mm 1 mps 590 mmHg 62%
    14:00 +7°C° 0 mm 1 mps 590 mmHg 63%
    15:00 +7°C° 0 mm 1 mps 589 mmHg 65%
    16:00 +6°C° 0 mm 1 mps 589 mmHg 66%
    17:00 +4°C° 0 mm 1 mps 588 mmHg 70%
    18:00 +2°C° 0 mm 1 mps 587 mmHg 74%
    19:00 +1°C° 0 mm 1 mps 586 mmHg 79%
    20:00 0°C° 0 mm 1 mps 586 mmHg 77%
    21:00 0°C° 0 mm 1 mps 586 mmHg 76%
    22:00 0°C° 0 mm 1 mps 586 mmHg 75%
    23:00 -1°C° 0 mm 1 mps 586 mmHg 73%
    Show more